• MPC Preparation (Info)

  • MPEC 2015-E47 : 2015 EU

    The following Minor Planet Electronic Circular may be linked-to from your own Web pages, but must not otherwise be redistributed electronically.

    A form allowing access to any MPEC is at the bottom of this page.


    Read MPEC 2015-E46 Read MPEC 2015-E48


    M.P.E.C. 2015-E47                                Issued 2015 Mar. 13, 14:40 UT
    
         The Minor Planet Electronic Circulars contain information on unusual
             minor planets and routine data on comets.  They are published
       on behalf of Commission 20 of the International Astronomical Union by the
              Minor Planet Center, Smithsonian Astrophysical Observatory,
                              Cambridge, MA 02138, U.S.A.
    
                 Prepared using the Tamkin Foundation Computer Network
    
                                  MPC@CFA.HARVARD.EDU
                URL https://www.minorplanetcenter.net/    ISSN 1523-6714
    
                                        2015 EU
    
    Observations:
         K15E00U* C2015 03 10.22274 11 10 22.54 +33 38 13.6          20.9 VqEE047G96
         K15E00U  C2015 03 10.22989 11 10 29.29 +33 38 01.7          20.7 VqEE047G96
         K15E00U  C2015 03 10.24421 11 10 42.75 +33 37 37.6          21.9 VqEE047G96
         K15E00U  C2015 03 10.36943 11 12 39.15 +33 33 40.0          21.4 VqEE047G96
         K15E00U  C2015 03 10.36976 11 12 39.51 +33 33 39.1          21.4 VqEE047G96
         K15E00U  C2015 03 10.37041 11 12 40.04 +33 33 37.6          20.6 VqEE047G96
         K15E00U KC2015 03 10.38214 11 12 51.40 +33 33 15.4                oEE047291
         K15E00U KC2015 03 10.38528 11 12 54.32 +33 33 07.9          21.0 RoEE047291
         K15E00U KC2015 03 10.38844 11 12 57.25 +33 33 01.8                oEE047291
         K15E00U  C2015 03 11.27910 11 27 43.49 +33 00 14.3          21.3 VqEE047G96
         K15E00U  C2015 03 11.27979 11 27 44.07 +33 00 12.9          21.3 VqEE047G96
         K15E00U  C2015 03 11.28014 11 27 44.41 +33 00 11.5          21.9 VqEE047G96
         K15E00U  C2015 03 13.38529 12 01 35.51 +31 13 29.7          20.4 VqEE047G96
         K15E00U  C2015 03 13.38568 12 01 35.88 +31 13 27.9          20.3 VqEE047G96
         K15E00U  C2015 03 13.38606 12 01 36.25 +31 13 26.2          20.6 VqEE047G96
         K15E00U  C2015 03 13.38644 12 01 36.53 +31 13 25.0          20.4 VqEE047G96
    
    Observer details:
    291 LPL/Spacewatch II.  Observer T. H. Bressi.  1.8-m f/2.7 reflector + CCD.
    G96 Mt. Lemmon Survey.  Observers R. A. Kowalski, J. A. Johnson, R. G. Matheny.
        Measurers E. J. Christensen, D. C. Fuls, A. R. Gibbs, A. D. Grauer,
        R. E. Hill, J. A. Johnson, R. A. Kowalski, S. M. Larson, R. G. Matheny,
        F. C. Shelly.  1.5-m reflector + CCD.
    
    Orbital elements:
    2015 EU                                                  Earth MOID = 0.0629 AU
    Epoch 2015 June 27.0 TT = JDT 2457200.5                 MPC
    M  26.55869              (2000.0)            P               Q
    n   0.24401533     Peri.   35.03608     -0.97870160     -0.20248724
    a   2.5362456      Node   133.24390     +0.17616176     -0.91291029
    e   0.5862802      Incl.    2.65910     +0.10540503     -0.35439205
    P   4.04           H   25.7           G   0.15           U   7
    Residuals in seconds of arc
    150310 G96  0.7-  0.7-    150310 291  0.3+  0.5+    150313 G96  0.3-  0.3+
    150310 G96  0.1-  0.7-    150310 291  0.1+  0.3-    150313 G96  0.0   0.1-
    150310 G96  0.6+  0.6-    150310 291  0.3-  0.3+    150313 G96  0.4+  0.4-
    150310 G96 (3.0-  0.2-)   150311 G96  0.5+  0.4+    150313 G96  0.3-  0.2-
    150310 G96 (2.3-  0.4-)   150311 G96  0.2-  0.7+
    150310 G96 (3.3-  0.5-)   150311 G96  0.1-  0.1+
    
    Ephemeris:
    2015 EU                  a,e,i = 2.54, 0.59, 3                   q = 1.0493
    Date    TT    R. A. (2000) Decl.     Delta      r     Elong.  Phase     V
    2015 02 11    07 26 40.0 +23 42 43   0.1364  1.1049   148.0    28.2    22.8
    ...
    2015 02 26    08 32 52.8 +31 04 05   0.08580 1.0607   144.2    33.1    21.9
    ...
    2015 03 06    10 03 36.1 +34 25 02   0.06827 1.0506   148.3    29.8    21.3
    ...
    2015 03 12    11 39 27.6 +32 28 10   0.06354 1.0495   151.0    27.3    21.0
    2015 03 13    11 55 32.7 +31 35 58   0.06364 1.0498   151.0    27.3    21.0
    2015 03 14    12 11 10.0 +30 35 42   0.06401 1.0504   150.9    27.4    21.1
    ...
    2015 03 20    13 29 20.6 +22 58 49   0.07129 1.0568   148.0    29.9    21.4
    ...
    2015 03 28    14 30 36.4 +13 23 17   0.09124 1.0739   144.9    32.3    22.0
    ...
    2015 04 12    15 14 02.9 +02 46 26   0.1449  1.1293   149.4    26.9    23.0
    
    A. U. Tomatic                (C) Copyright 2015 MPC           M.P.E.C. 2015-E47
    

    Read MPEC 2015-E46 Read MPEC 2015-E48


    MPEC number:

    Enter an MPEC number in one of the following forms:

    • 1997-B01 (the full form)
    • J97B01 (the packed version of the full form)
    • B01 (the abbreviated form)